Year,Month,Day,Hour,Minute,Value (Times are PST for temperature in C)
2014,08,10,00,00,18.40
2014,08,10,00,01,18.60
2014,08,10,00,02,18.70
2014,08,10,00,03,18.80
2014,08,10,00,04,19.00
2014,08,10,00,05,19.10
2014,08,10,00,06,19.10
2014,08,10,00,07,19.20
2014,08,10,00,08,19.30
2014,08,10,00,09,19.40
2014,08,10,00,10,19.50
2014,08,10,00,11,19.50
2014,08,10,00,12,19.60
2014,08,10,00,13,19.60
2014,08,10,00,14,19.70
2014,08,10,00,15,19.70
2014,08,10,00,16,19.80
2014,08,10,00,17,19.80
2014,08,10,00,18,19.90
2014,08,10,00,19,20.00
2014,08,10,00,20,20.10
2014,08,10,00,21,20.20
2014,08,10,00,22,20.40
2014,08,10,00,23,20.50
2014,08,10,00,24,20.60
2014,08,10,00,25,20.70
2014,08,10,00,26,20.70
2014,08,10,00,27,20.80
2014,08,10,00,28,20.80
2014,08,10,00,29,20.90
2014,08,10,00,30,20.90
2014,08,10,00,31,20.90
2014,08,10,00,32,20.90
2014,08,10,00,33,21.00
2014,08,10,00,34,21.00
2014,08,10,00,35,21.00
2014,08,10,00,36,21.00
2014,08,10,00,37,21.00
2014,08,10,00,38,21.00
2014,08,10,00,39,21.00
2014,08,10,00,40,21.00
2014,08,10,00,41,21.00
2014,08,10,00,42,21.00
2014,08,10,00,43,21.00
2014,08,10,00,44,21.00
2014,08,10,00,45,20.90
2014,08,10,00,46,20.90
2014,08,10,00,47,20.90
2014,08,10,00,48,20.80
2014,08,10,00,49,20.80
2014,08,10,00,50,20.80
2014,08,10,00,51,20.70
2014,08,10,00,52,20.70
2014,08,10,00,53,20.70
2014,08,10,00,54,20.60
2014,08,10,00,55,20.60
2014,08,10,00,56,20.60
2014,08,10,00,57,20.50
2014,08,10,00,58,20.50
2014,08,10,00,59,20.40
2014,08,10,01,00,20.40
2014,08,10,01,01,20.30
2014,08,10,01,02,20.30
2014,08,10,01,03,20.30
2014,08,10,01,04,20.20
2014,08,10,01,05,20.20
2014,08,10,01,06,20.20
2014,08,10,01,07,20.10
2014,08,10,01,08,20.10
2014,08,10,01,09,20.10
2014,08,10,01,10,20.00
2014,08,10,01,11,20.00
2014,08,10,01,12,19.90
2014,08,10,01,13,19.90
2014,08,10,01,14,19.90
2014,08,10,01,15,19.80
2014,08,10,01,16,19.80
2014,08,10,01,17,19.70
2014,08,10,01,18,19.70
2014,08,10,01,19,19.70
2014,08,10,01,20,19.60
2014,08,10,01,21,19.60
2014,08,10,01,22,19.50
2014,08,10,01,23,19.50
2014,08,10,01,24,19.40
2014,08,10,01,25,19.40
2014,08,10,01,26,19.40
2014,08,10,01,27,19.30
2014,08,10,01,28,19.30
2014,08,10,01,29,19.30
2014,08,10,01,30,19.20
2014,08,10,01,31,19.20
2014,08,10,01,32,19.20
2014,08,10,01,33,19.10
2014,08,10,01,34,19.10
2014,08,10,01,35,19.10
2014,08,10,01,36,19.10
2014,08,10,01,37,19.10
2014,08,10,01,38,19.10
2014,08,10,01,39,19.10
2014,08,10,01,40,19.10
2014,08,10,01,41,19.00
2014,08,10,01,42,19.00
2014,08,10,01,43,19.00
2014,08,10,01,44,18.90
2014,08,10,01,45,18.90
2014,08,10,01,46,18.90
2014,08,10,01,47,18.90
2014,08,10,01,48,18.90
2014,08,10,01,49,18.90
2014,08,10,01,50,18.90
2014,08,10,01,51,18.80
2014,08,10,01,52,18.80
2014,08,10,01,53,18.70
2014,08,10,01,54,18.60
2014,08,10,01,55,18.60
2014,08,10,01,56,18.50
2014,08,10,01,57,18.40
2014,08,10,01,58,18.40
2014,08,10,01,59,18.40
2014,08,10,02,00,18.30
2014,08,10,02,01,18.30
2014,08,10,02,02,18.30
2014,08,10,02,03,18.30
2014,08,10,02,04,18.30
2014,08,10,02,05,18.30
2014,08,10,02,06,18.30
2014,08,10,02,07,18.30
2014,08,10,02,08,18.30
2014,08,10,02,09,18.30
2014,08,10,02,10,18.30
2014,08,10,02,11,18.30
2014,08,10,02,12,18.30
2014,08,10,02,13,18.30
2014,08,10,02,14,18.30
2014,08,10,02,15,18.30
2014,08,10,02,16,18.30
2014,08,10,02,17,18.30
2014,08,10,02,18,18.30
2014,08,10,02,19,18.30
2014,08,10,02,20,18.20
2014,08,10,02,21,18.20
2014,08,10,02,22,18.20
2014,08,10,02,23,18.20
2014,08,10,02,24,18.20
2014,08,10,02,25,18.20
2014,08,10,02,26,18.20
2014,08,10,02,27,18.20
2014,08,10,02,28,18.20
2014,08,10,02,29,18.30
2014,08,10,02,30,18.30
2014,08,10,02,31,18.30
2014,08,10,02,32,18.30
2014,08,10,02,33,18.30
2014,08,10,02,34,18.30
2014,08,10,02,35,18.30
2014,08,10,02,36,18.30
2014,08,10,02,37,18.30
2014,08,10,02,38,18.40
2014,08,10,02,39,18.40
2014,08,10,02,40,18.40
2014,08,10,02,41,18.40
2014,08,10,02,42,18.40
2014,08,10,02,43,18.40
2014,08,10,02,44,18.30
2014,08,10,02,45,18.30
2014,08,10,02,46,18.30
2014,08,10,02,47,18.30
2014,08,10,02,48,18.20
2014,08,10,02,49,18.20
2014,08,10,02,50,18.20
2014,08,10,02,51,18.20
2014,08,10,02,52,18.20
2014,08,10,02,53,18.20
2014,08,10,02,54,18.20
2014,08,10,02,55,18.20
2014,08,10,02,56,18.20
2014,08,10,02,57,18.20
2014,08,10,02,58,18.20
2014,08,10,02,59,18.20
2014,08,10,03,00,18.30
2014,08,10,03,01,18.30
2014,08,10,03,02,18.30
2014,08,10,03,03,18.40
2014,08,10,03,04,18.40
2014,08,10,03,05,18.50
2014,08,10,03,06,18.50
2014,08,10,03,07,18.60
2014,08,10,03,08,18.60
2014,08,10,03,09,18.70
2014,08,10,03,10,18.70
2014,08,10,03,11,18.70
2014,08,10,03,12,18.80
2014,08,10,03,13,18.80
2014,08,10,03,14,18.80
2014,08,10,03,15,18.80
2014,08,10,03,16,18.80
2014,08,10,03,17,18.80
2014,08,10,03,18,18.80
2014,08,10,03,19,18.80
2014,08,10,03,20,18.80
2014,08,10,03,21,18.80
2014,08,10,03,22,18.80
2014,08,10,03,23,18.90
2014,08,10,03,24,18.90
2014,08,10,03,25,18.90
2014,08,10,03,26,18.90
2014,08,10,03,27,18.90
2014,08,10,03,28,18.90
2014,08,10,03,29,18.90
2014,08,10,03,30,18.90
2014,08,10,03,31,18.90
2014,08,10,03,32,18.90
2014,08,10,03,33,18.90
2014,08,10,03,34,18.90
2014,08,10,03,35,18.90
2014,08,10,03,36,18.80
2014,08,10,03,37,18.80
2014,08,10,03,38,18.80
2014,08,10,03,39,18.80
2014,08,10,03,40,18.80
2014,08,10,03,41,18.80
2014,08,10,03,42,18.80
2014,08,10,03,43,18.80
2014,08,10,03,44,18.80
2014,08,10,03,45,18.90
2014,08,10,03,46,18.90
2014,08,10,03,47,18.90
2014,08,10,03,48,18.90
2014,08,10,03,49,18.90
2014,08,10,03,50,18.90
2014,08,10,03,51,18.90
2014,08,10,03,52,18.90
2014,08,10,03,53,18.90
2014,08,10,03,54,18.90
2014,08,10,03,55,18.90
2014,08,10,03,56,18.90
2014,08,10,03,57,18.90
2014,08,10,03,58,18.90
2014,08,10,03,59,18.90
2014,08,10,04,00,18.90
2014,08,10,04,01,18.90
2014,08,10,04,02,18.80
2014,08,10,04,03,18.80
2014,08,10,04,04,18.80
2014,08,10,04,05,18.80
2014,08,10,04,06,18.80
2014,08,10,04,07,18.80
2014,08,10,04,08,18.70
2014,08,10,04,09,18.70
2014,08,10,04,10,18.70
2014,08,10,04,11,18.60
2014,08,10,04,12,18.60
2014,08,10,04,13,18.60
2014,08,10,04,14,18.50
2014,08,10,04,15,18.50
2014,08,10,04,16,18.40
2014,08,10,04,17,18.40
2014,08,10,04,18,18.40
2014,08,10,04,19,18.30
2014,08,10,04,20,18.30
2014,08,10,04,21,18.20
2014,08,10,04,22,18.20
2014,08,10,04,23,18.20
2014,08,10,04,24,18.10
2014,08,10,04,25,18.10
2014,08,10,04,26,18.00
2014,08,10,04,27,18.00
2014,08,10,04,28,17.90
2014,08,10,04,29,17.80
2014,08,10,04,30,17.80
2014,08,10,04,31,17.80
2014,08,10,04,32,17.80
2014,08,10,04,33,17.70
2014,08,10,04,34,17.70
2014,08,10,04,35,17.70
2014,08,10,04,36,17.70
2014,08,10,04,37,17.70
2014,08,10,04,38,17.60
2014,08,10,04,39,17.60
2014,08,10,04,40,17.50
2014,08,10,04,41,17.50
2014,08,10,04,42,17.50
2014,08,10,04,43,17.40
2014,08,10,04,44,17.40
2014,08,10,04,45,17.40
2014,08,10,04,46,17.40
2014,08,10,04,47,17.40
2014,08,10,04,48,17.40
2014,08,10,04,49,17.40
2014,08,10,04,50,17.40
2014,08,10,04,51,17.30
2014,08,10,04,52,17.30
2014,08,10,04,53,17.30
2014,08,10,04,54,17.30
2014,08,10,04,55,17.40
2014,08,10,04,56,17.40
2014,08,10,04,57,17.40
2014,08,10,04,58,17.40
2014,08,10,04,59,17.40
2014,08,10,05,00,17.40
2014,08,10,05,01,17.50
2014,08,10,05,02,17.60
2014,08,10,05,03,17.60
2014,08,10,05,04,17.60
2014,08,10,05,05,17.60
2014,08,10,05,06,17.60
2014,08,10,05,07,17.60
2014,08,10,05,08,17.70
2014,08,10,05,09,17.70
2014,08,10,05,10,17.70
2014,08,10,05,11,17.60
2014,08,10,05,12,17.60
2014,08,10,05,13,17.60
2014,08,10,05,14,17.60
2014,08,10,05,15,17.60
2014,08,10,05,16,17.60
2014,08,10,05,17,17.60
2014,08,10,05,18,17.50
2014,08,10,05,19,17.50
2014,08,10,05,20,17.50
2014,08,10,05,21,17.50
2014,08,10,05,22,17.50
2014,08,10,05,23,17.50
2014,08,10,05,24,17.50
2014,08,10,05,25,17.50
2014,08,10,05,26,17.50
2014,08,10,05,27,17.50
2014,08,10,05,28,17.50
2014,08,10,05,29,17.50
2014,08,10,05,30,17.50
2014,08,10,05,31,17.50
2014,08,10,05,32,17.50
2014,08,10,05,33,17.50
2014,08,10,05,34,17.50
2014,08,10,05,35,17.50
2014,08,10,05,36,17.50
2014,08,10,05,37,17.50
2014,08,10,05,38,17.50
2014,08,10,05,39,17.40
2014,08,10,05,40,17.40
2014,08,10,05,41,17.40
2014,08,10,05,42,17.40
2014,08,10,05,43,17.40
2014,08,10,05,44,17.40
2014,08,10,05,45,17.40
2014,08,10,05,46,17.30
2014,08,10,05,47,17.30
2014,08,10,05,48,17.30
2014,08,10,05,49,17.30
2014,08,10,05,50,17.30
2014,08,10,05,51,17.30
2014,08,10,05,52,17.30
2014,08,10,05,53,17.30
2014,08,10,05,54,17.30
2014,08,10,05,55,17.30
2014,08,10,05,56,17.30
2014,08,10,05,57,17.30
2014,08,10,05,58,17.30
2014,08,10,05,59,17.30
2014,08,10,06,00,17.30
2014,08,10,06,01,17.30
2014,08,10,06,02,17.30
2014,08,10,06,03,17.30
2014,08,10,06,04,17.20
2014,08,10,06,05,17.20
2014,08,10,06,06,17.20
2014,08,10,06,07,17.20
2014,08,10,06,08,17.20
2014,08,10,06,09,17.20
2014,08,10,06,10,17.20
2014,08,10,06,11,17.20
2014,08,10,06,12,17.20
2014,08,10,06,13,17.20
2014,08,10,06,14,17.20
2014,08,10,06,15,17.20
2014,08,10,06,16,17.20
2014,08,10,06,17,17.30
2014,08,10,06,18,17.30
2014,08,10,06,19,17.30
2014,08,10,06,20,17.30
2014,08,10,06,21,17.30
2014,08,10,06,22,17.30
2014,08,10,06,23,17.30
2014,08,10,06,24,17.30
2014,08,10,06,25,17.40
2014,08,10,06,26,17.40
2014,08,10,06,27,17.40
2014,08,10,06,28,17.30
2014,08,10,06,29,17.30
2014,08,10,06,30,17.30
2014,08,10,06,31,17.40
2014,08,10,06,32,17.30
2014,08,10,06,33,17.30
2014,08,10,06,34,17.30
2014,08,10,06,35,17.30
2014,08,10,06,36,17.30
2014,08,10,06,37,17.40
2014,08,10,06,38,17.40
2014,08,10,06,39,17.40
2014,08,10,06,40,17.40
2014,08,10,06,41,17.40
2014,08,10,06,42,17.40
2014,08,10,06,43,17.40
2014,08,10,06,44,17.40
2014,08,10,06,45,17.50
2014,08,10,06,46,17.50
2014,08,10,06,47,17.50
2014,08,10,06,48,17.50
2014,08,10,06,49,17.60
2014,08,10,06,50,17.60
2014,08,10,06,51,17.60
2014,08,10,06,52,17.70
2014,08,10,06,53,17.70
2014,08,10,06,54,17.80
2014,08,10,06,55,17.80
2014,08,10,06,56,17.90
2014,08,10,06,57,18.00
2014,08,10,06,58,18.00
2014,08,10,06,59,18.10
2014,08,10,07,00,18.20
2014,08,10,07,01,18.20
2014,08,10,07,02,18.30
2014,08,10,07,03,18.40
2014,08,10,07,04,18.50
2014,08,10,07,05,18.50
2014,08,10,07,06,18.60
2014,08,10,07,07,18.70
2014,08,10,07,08,18.80
2014,08,10,07,09,18.80
2014,08,10,07,10,18.80
2014,08,10,07,11,18.90
2014,08,10,07,12,18.90
2014,08,10,07,13,18.90
2014,08,10,07,14,18.90
2014,08,10,07,15,19.00
2014,08,10,07,16,19.00
2014,08,10,07,17,19.00
2014,08,10,07,18,19.00
2014,08,10,07,19,18.90
2014,08,10,07,20,18.90
2014,08,10,07,21,18.90
2014,08,10,07,22,18.90
2014,08,10,07,23,18.90
2014,08,10,07,24,18.90
2014,08,10,07,25,19.00
2014,08,10,07,26,19.00
2014,08,10,07,27,19.10
2014,08,10,07,28,19.20
2014,08,10,07,29,19.30
2014,08,10,07,30,19.40
2014,08,10,07,31,19.50
2014,08,10,07,32,19.60
2014,08,10,07,33,19.70
2014,08,10,07,34,19.80
2014,08,10,07,35,19.90
2014,08,10,07,36,20.00
2014,08,10,07,37,20.00
2014,08,10,07,38,20.10
2014,08,10,07,39,20.20
2014,08,10,07,40,20.20
2014,08,10,07,41,20.30
2014,08,10,07,42,20.30
2014,08,10,07,43,20.40
2014,08,10,07,44,20.40
2014,08,10,07,45,20.50
2014,08,10,07,46,20.60
2014,08,10,07,47,20.60
2014,08,10,07,48,20.70
2014,08,10,07,49,20.70
2014,08,10,07,50,20.80
2014,08,10,07,51,20.80
2014,08,10,07,52,20.80
2014,08,10,07,53,20.80
2014,08,10,07,54,20.80
2014,08,10,07,55,20.80
2014,08,10,07,56,20.80
2014,08,10,07,57,20.80
2014,08,10,07,58,20.90
2014,08,10,07,59,20.90
2014,08,10,08,00,20.90
2014,08,10,08,01,20.90
2014,08,10,08,02,21.00
2014,08,10,08,03,21.00
2014,08,10,08,04,21.00
2014,08,10,08,05,21.00
2014,08,10,08,06,21.00
2014,08,10,08,07,21.10
2014,08,10,08,08,21.00
2014,08,10,08,09,21.00
2014,08,10,08,10,21.00
2014,08,10,08,11,21.00
2014,08,10,08,12,21.00
2014,08,10,08,13,21.00
2014,08,10,08,14,21.00
2014,08,10,08,15,21.10
2014,08,10,08,16,21.10
2014,08,10,08,17,21.10
2014,08,10,08,18,21.10
2014,08,10,08,19,21.10
2014,08,10,08,20,21.20
2014,08,10,08,21,21.20
2014,08,10,08,22,21.30
2014,08,10,08,23,21.30
2014,08,10,08,24,21.30
2014,08,10,08,25,21.30
2014,08,10,08,26,21.40
2014,08,10,08,27,21.40
2014,08,10,08,28,21.40
2014,08,10,08,29,21.40
2014,08,10,08,30,21.50
2014,08,10,08,31,21.50
2014,08,10,08,32,21.50
2014,08,10,08,33,21.50
2014,08,10,08,34,21.40
2014,08,10,08,35,21.30
2014,08,10,08,36,21.20
2014,08,10,08,37,21.20
2014,08,10,08,38,21.20
2014,08,10,08,39,21.30
2014,08,10,08,40,21.30
2014,08,10,08,41,21.30
2014,08,10,08,42,21.40
2014,08,10,08,43,21.40
2014,08,10,08,44,21.40
2014,08,10,08,45,21.40
2014,08,10,08,46,21.30
2014,08,10,08,47,21.30
2014,08,10,08,48,21.30
2014,08,10,08,49,21.30
2014,08,10,08,50,21.30
2014,08,10,08,51,21.30
2014,08,10,08,52,21.30
2014,08,10,08,53,21.30
2014,08,10,08,54,21.30
2014,08,10,08,55,21.40
2014,08,10,08,56,21.40
2014,08,10,08,57,21.40
2014,08,10,08,58,21.50
2014,08,10,08,59,21.60
2014,08,10,09,00,21.60
2014,08,10,09,01,21.70
2014,08,10,09,02,21.80
2014,08,10,09,03,21.80
2014,08,10,09,04,21.90
2014,08,10,09,05,21.90
2014,08,10,09,06,21.90
2014,08,10,09,07,21.90
2014,08,10,09,08,21.90
2014,08,10,09,09,21.90
2014,08,10,09,10,21.90
2014,08,10,09,11,21.80
2014,08,10,09,12,21.90
2014,08,10,09,13,21.90
2014,08,10,09,14,21.90
2014,08,10,09,15,22.00
2014,08,10,09,16,21.90
2014,08,10,09,17,21.90
2014,08,10,09,18,22.00
2014,08,10,09,19,22.00
2014,08,10,09,20,21.90
2014,08,10,09,21,21.90
2014,08,10,09,22,21.90
2014,08,10,09,23,21.90
2014,08,10,09,24,21.90
2014,08,10,09,25,21.90
2014,08,10,09,26,22.00
2014,08,10,09,27,22.00
2014,08,10,09,28,22.10
2014,08,10,09,29,22.10
2014,08,10,09,30,22.20
2014,08,10,09,31,22.20
2014,08,10,09,32,22.20
2014,08,10,09,33,22.30
2014,08,10,09,34,22.40
2014,08,10,09,35,22.40
2014,08,10,09,36,22.50
2014,08,10,09,37,22.60
2014,08,10,09,38,22.70
2014,08,10,09,39,22.80
2014,08,10,09,40,22.90
2014,08,10,09,41,23.00
2014,08,10,09,42,23.10
2014,08,10,09,43,23.20
2014,08,10,09,44,23.30
2014,08,10,09,45,23.30
2014,08,10,09,46,23.40
2014,08,10,09,47,23.40
2014,08,10,09,48,23.40
2014,08,10,09,49,23.40
2014,08,10,09,50,23.40
2014,08,10,09,51,23.30
2014,08,10,09,52,23.30
2014,08,10,09,53,23.20
2014,08,10,09,54,23.10
2014,08,10,09,55,23.10
2014,08,10,09,56,23.10
2014,08,10,09,57,23.10
2014,08,10,09,58,23.20
2014,08,10,09,59,23.30
2014,08,10,10,00,23.30
2014,08,10,10,01,23.30
2014,08,10,10,02,23.30
2014,08,10,10,03,23.40
2014,08,10,10,04,23.40
2014,08,10,10,05,23.40
2014,08,10,10,06,23.40
2014,08,10,10,07,23.50
2014,08,10,10,08,23.50
2014,08,10,10,09,23.50
2014,08,10,10,10,23.60
2014,08,10,10,11,23.60
2014,08,10,10,12,23.60
2014,08,10,10,13,23.60
2014,08,10,10,14,23.60
2014,08,10,10,15,23.70
2014,08,10,10,16,23.70
2014,08,10,10,17,23.70
2014,08,10,10,18,23.80
2014,08,10,10,19,23.80
2014,08,10,10,20,23.80
2014,08,10,10,21,23.80
2014,08,10,10,22,23.80
2014,08,10,10,23,23.80
2014,08,10,10,24,23.90
2014,08,10,10,25,23.90
2014,08,10,10,26,23.90
2014,08,10,10,27,23.80
2014,08,10,10,28,23.70
2014,08,10,10,29,23.70
2014,08,10,10,30,23.60
2014,08,10,10,31,23.50
2014,08,10,10,32,23.40
2014,08,10,10,33,23.30
2014,08,10,10,34,23.30
2014,08,10,10,35,23.30
2014,08,10,10,36,23.20
2014,08,10,10,37,23.20
2014,08,10,10,38,23.20
2014,08,10,10,39,23.20
2014,08,10,10,40,23.20
2014,08,10,10,41,23.20
2014,08,10,10,42,23.20
2014,08,10,10,43,23.20
2014,08,10,10,44,23.20
2014,08,10,10,45,23.20
2014,08,10,10,46,23.20
2014,08,10,10,47,23.20
2014,08,10,10,48,23.10
2014,08,10,10,49,23.10
2014,08,10,10,50,23.10
2014,08,10,10,51,23.10
2014,08,10,10,52,23.10
2014,08,10,10,53,23.10
2014,08,10,10,54,23.10
2014,08,10,10,55,23.10
2014,08,10,10,56,23.20
2014,08,10,10,57,23.20
2014,08,10,10,58,23.20
2014,08,10,10,59,23.20
2014,08,10,11,00,23.20
2014,08,10,11,01,23.20
2014,08,10,11,02,23.30
2014,08,10,11,03,23.40
2014,08,10,11,04,23.50
2014,08,10,11,05,23.60
2014,08,10,11,06,23.60
2014,08,10,11,07,23.70
2014,08,10,11,08,23.80
2014,08,10,11,09,23.80
2014,08,10,11,10,23.90
2014,08,10,11,11,23.90
2014,08,10,11,12,24.00
2014,08,10,11,13,24.10
2014,08,10,11,14,24.10
2014,08,10,11,15,24.20
2014,08,10,11,16,24.20
2014,08,10,11,17,24.30
2014,08,10,11,18,24.30
2014,08,10,11,19,24.40
2014,08,10,11,20,24.50
2014,08,10,11,21,24.60
2014,08,10,11,22,24.60
2014,08,10,11,23,24.70
2014,08,10,11,24,24.80
2014,08,10,11,25,24.90
2014,08,10,11,26,24.90
2014,08,10,11,27,24.90
2014,08,10,11,28,24.90
2014,08,10,11,29,24.80
2014,08,10,11,30,24.90
2014,08,10,11,31,24.90
2014,08,10,11,32,24.90
2014,08,10,11,33,24.90
2014,08,10,11,34,24.90
2014,08,10,11,35,24.80
2014,08,10,11,36,24.70
2014,08,10,11,37,24.60
2014,08,10,11,38,24.60
2014,08,10,11,39,24.60
2014,08,10,11,40,24.60
2014,08,10,11,41,24.70
2014,08,10,11,42,24.80
2014,08,10,11,43,24.90
2014,08,10,11,44,25.00
2014,08,10,11,45,25.10
2014,08,10,11,46,25.20
2014,08,10,11,47,25.20
2014,08,10,11,48,25.20
2014,08,10,11,49,25.20
2014,08,10,11,50,25.20
2014,08,10,11,51,25.10
2014,08,10,11,52,25.00
2014,08,10,11,53,25.00
2014,08,10,11,54,25.00
2014,08,10,11,55,25.00
2014,08,10,11,56,25.00
2014,08,10,11,57,25.10
2014,08,10,11,58,25.00
2014,08,10,11,59,24.90
2014,08,10,12,00,24.90
2014,08,10,12,01,24.90
2014,08,10,12,02,24.90
2014,08,10,12,03,24.90
2014,08,10,12,04,24.90
2014,08,10,12,05,24.90
2014,08,10,12,06,24.90
2014,08,10,12,07,24.80
2014,08,10,12,08,24.80
2014,08,10,12,09,24.80
2014,08,10,12,10,24.80
2014,08,10,12,11,24.90
2014,08,10,12,12,24.90
2014,08,10,12,13,25.10
2014,08,10,12,14,25.20
2014,08,10,12,15,25.30
2014,08,10,12,16,25.30
2014,08,10,12,17,25.30
2014,08,10,12,18,25.20
2014,08,10,12,19,25.10
2014,08,10,12,20,25.10
2014,08,10,12,21,25.10
2014,08,10,12,22,25.10
2014,08,10,12,23,25.00
2014,08,10,12,24,25.00
2014,08,10,12,25,25.10
2014,08,10,12,26,25.10
2014,08,10,12,27,25.10
2014,08,10,12,28,25.10
2014,08,10,12,29,25.10
2014,08,10,12,30,25.10
2014,08,10,12,31,25.10
2014,08,10,12,32,25.10
2014,08,10,12,33,25.10
2014,08,10,12,34,25.00
2014,08,10,12,35,25.00
2014,08,10,12,36,24.90
2014,08,10,12,37,24.90
2014,08,10,12,38,24.80
2014,08,10,12,39,24.80
2014,08,10,12,40,24.70
2014,08,10,12,41,24.80
2014,08,10,12,42,24.80
2014,08,10,12,43,24.90
2014,08,10,12,44,25.00
2014,08,10,12,45,25.00
2014,08,10,12,46,25.10
2014,08,10,12,47,25.10
2014,08,10,12,48,25.10
2014,08,10,12,49,25.20
2014,08,10,12,50,25.20
2014,08,10,12,51,25.10
2014,08,10,12,52,25.10
2014,08,10,12,53,25.20
2014,08,10,12,54,25.20
2014,08,10,12,55,25.20
2014,08,10,12,56,25.20
2014,08,10,12,57,25.30
2014,08,10,12,58,25.30
2014,08,10,12,59,25.30
2014,08,10,13,00,25.20
2014,08,10,13,01,25.20
2014,08,10,13,02,25.20
2014,08,10,13,03,25.20
2014,08,10,13,04,25.30
2014,08,10,13,05,25.30
2014,08,10,13,06,25.30
2014,08,10,13,07,25.30
2014,08,10,13,08,25.20
2014,08,10,13,09,25.10
2014,08,10,13,10,25.10
2014,08,10,13,11,25.00
2014,08,10,13,12,24.90
2014,08,10,13,13,24.90
2014,08,10,13,14,24.90
2014,08,10,13,15,24.80
2014,08,10,13,16,24.90
2014,08,10,13,17,24.90
2014,08,10,13,18,25.00
2014,08,10,13,19,25.00
2014,08,10,13,20,25.10
2014,08,10,13,21,25.20
2014,08,10,13,22,25.20
2014,08,10,13,23,25.20
2014,08,10,13,24,25.20
2014,08,10,13,25,25.20
2014,08,10,13,26,25.30
2014,08,10,13,27,25.30
2014,08,10,13,28,25.30
2014,08,10,13,29,25.30
2014,08,10,13,30,25.40
2014,08,10,13,31,25.40
2014,08,10,13,32,25.40
2014,08,10,13,33,25.40
2014,08,10,13,34,25.30
2014,08,10,13,35,25.30
2014,08,10,13,36,25.30
2014,08,10,13,37,25.40
2014,08,10,13,38,25.50
2014,08,10,13,39,25.50
2014,08,10,13,40,25.60
2014,08,10,13,41,25.70
2014,08,10,13,42,25.70
2014,08,10,13,43,25.70
2014,08,10,13,44,25.80
2014,08,10,13,45,25.80
2014,08,10,13,46,25.80
2014,08,10,13,47,25.90
2014,08,10,13,48,25.90
2014,08,10,13,49,25.90
2014,08,10,13,50,25.80
2014,08,10,13,51,25.80
2014,08,10,13,52,25.80
2014,08,10,13,53,25.90
2014,08,10,13,54,25.90
2014,08,10,13,55,26.00
2014,08,10,13,56,26.10
2014,08,10,13,57,26.10
2014,08,10,13,58,26.10
2014,08,10,13,59,26.10
2014,08,10,14,00,26.10
2014,08,10,14,01,26.20
2014,08,10,14,02,26.20
2014,08,10,14,03,26.30
2014,08,10,14,04,26.30
2014,08,10,14,05,26.30
2014,08,10,14,06,26.30
2014,08,10,14,07,26.30
2014,08,10,14,08,26.30
2014,08,10,14,09,26.40
2014,08,10,14,10,26.40
2014,08,10,14,11,26.50
2014,08,10,14,12,26.60
2014,08,10,14,13,26.70
2014,08,10,14,14,26.70
2014,08,10,14,15,26.80
2014,08,10,14,16,26.80
2014,08,10,14,17,26.90
2014,08,10,14,18,27.00
2014,08,10,14,19,27.00
2014,08,10,14,20,26.90
2014,08,10,14,21,26.80
2014,08,10,14,22,26.80
2014,08,10,14,23,26.70
2014,08,10,14,24,26.70
2014,08,10,14,25,26.70
2014,08,10,14,26,26.60
2014,08,10,14,27,26.60
2014,08,10,14,28,26.50
2014,08,10,14,29,26.50
2014,08,10,14,30,26.60
2014,08,10,14,31,26.60
2014,08,10,14,32,26.60
2014,08,10,14,33,26.70
2014,08,10,14,34,26.70
2014,08,10,14,35,26.80
2014,08,10,14,36,26.80
2014,08,10,14,37,26.90
2014,08,10,14,38,26.90
2014,08,10,14,39,26.90
2014,08,10,14,40,27.00
2014,08,10,14,41,27.00
2014,08,10,14,42,26.90
2014,08,10,14,43,26.90
2014,08,10,14,44,26.90
2014,08,10,14,45,26.90
2014,08,10,14,46,27.00
2014,08,10,14,47,27.00
2014,08,10,14,48,27.10
2014,08,10,14,49,27.10
2014,08,10,14,50,27.20
2014,08,10,14,51,27.20
2014,08,10,14,52,27.20
2014,08,10,14,53,27.20
2014,08,10,14,54,27.20
2014,08,10,14,55,27.10
2014,08,10,14,56,27.10
2014,08,10,14,57,27.10
2014,08,10,14,58,27.00
2014,08,10,14,59,27.00
2014,08,10,15,00,27.00
2014,08,10,15,01,27.10
2014,08,10,15,02,27.10
2014,08,10,15,03,27.20
2014,08,10,15,04,27.30
2014,08,10,15,05,27.30
2014,08,10,15,06,27.30
2014,08,10,15,07,27.40
2014,08,10,15,08,27.40
2014,08,10,15,09,27.40
2014,08,10,15,10,27.40
2014,08,10,15,11,27.50
2014,08,10,15,12,27.50
2014,08,10,15,13,27.50
2014,08,10,15,14,27.40
2014,08,10,15,15,27.40
2014,08,10,15,16,27.30
2014,08,10,15,17,27.40
2014,08,10,15,18,27.40
2014,08,10,15,19,27.40
2014,08,10,15,20,27.40
2014,08,10,15,21,27.50
2014,08,10,15,22,27.50
2014,08,10,15,23,27.60
2014,08,10,15,24,27.60
2014,08,10,15,25,27.70
2014,08,10,15,26,27.70
2014,08,10,15,27,27.70
2014,08,10,15,28,27.70
2014,08,10,15,29,27.70
2014,08,10,15,30,27.70
2014,08,10,15,31,27.70
2014,08,10,15,32,27.70
2014,08,10,15,33,27.70
2014,08,10,15,34,27.60
2014,08,10,15,35,27.60
2014,08,10,15,36,27.50
2014,08,10,15,37,27.50
2014,08,10,15,38,27.50
2014,08,10,15,39,27.50
2014,08,10,15,40,27.60
2014,08,10,15,41,27.60
2014,08,10,15,42,27.70
2014,08,10,15,43,27.70
2014,08,10,15,44,27.70
2014,08,10,15,45,27.80
2014,08,10,15,46,27.80
2014,08,10,15,47,27.90
2014,08,10,15,48,28.00
2014,08,10,15,49,28.10
2014,08,10,15,50,28.20
2014,08,10,15,51,28.30
2014,08,10,15,52,28.40
2014,08,10,15,53,28.50
2014,08,10,15,54,28.70
2014,08,10,15,55,28.70
2014,08,10,15,56,28.70
2014,08,10,15,57,28.70
2014,08,10,15,58,28.70
2014,08,10,15,59,28.70
2014,08,10,16,00,28.60
2014,08,10,16,01,28.60
2014,08,10,16,02,28.60
2014,08,10,16,03,28.60
2014,08,10,16,04,28.50
2014,08,10,16,05,28.40
2014,08,10,16,06,28.40
2014,08,10,16,07,28.30
2014,08,10,16,08,28.20
2014,08,10,16,09,28.20
2014,08,10,16,10,28.30
2014,08,10,16,11,28.30
2014,08,10,16,12,28.30
2014,08,10,16,13,28.30
2014,08,10,16,14,28.30
2014,08,10,16,15,28.40
2014,08,10,16,16,28.40
2014,08,10,16,17,28.40
2014,08,10,16,18,28.50
2014,08,10,16,19,28.50
2014,08,10,16,20,28.60
2014,08,10,16,21,28.60
2014,08,10,16,22,28.60
2014,08,10,16,23,28.60
2014,08,10,16,24,28.60
2014,08,10,16,25,28.70
2014,08,10,16,26,28.70
2014,08,10,16,27,28.70
2014,08,10,16,28,28.70
2014,08,10,16,29,28.70
2014,08,10,16,30,28.70
2014,08,10,16,31,28.70
2014,08,10,16,32,28.70
2014,08,10,16,33,28.70
2014,08,10,16,34,28.70
2014,08,10,16,35,28.80
2014,08,10,16,36,28.70
2014,08,10,16,37,28.70
2014,08,10,16,38,28.80
2014,08,10,16,39,28.80
2014,08,10,16,40,28.90
2014,08,10,16,41,28.90
2014,08,10,16,42,29.00
2014,08,10,16,43,29.10
2014,08,10,16,44,29.20
2014,08,10,16,45,29.20
2014,08,10,16,46,29.20
2014,08,10,16,47,29.20
2014,08,10,16,48,29.20
2014,08,10,16,49,29.30
2014,08,10,16,50,29.30
2014,08,10,16,51,29.30
2014,08,10,16,52,29.30
2014,08,10,16,53,29.40
2014,08,10,16,54,29.40
2014,08,10,16,55,29.40
2014,08,10,16,56,29.40
2014,08,10,16,57,29.40
2014,08,10,16,58,29.30
2014,08,10,16,59,29.30
2014,08,10,17,00,29.30
2014,08,10,17,01,29.40
2014,08,10,17,02,29.40
2014,08,10,17,03,29.40
2014,08,10,17,04,29.50
2014,08,10,17,05,29.60
2014,08,10,17,06,29.60
2014,08,10,17,07,29.70
2014,08,10,17,08,29.80
2014,08,10,17,09,29.80
2014,08,10,17,10,29.80
2014,08,10,17,11,29.80
2014,08,10,17,12,29.80
2014,08,10,17,13,29.80
2014,08,10,17,14,29.80
2014,08,10,17,15,29.70
2014,08,10,17,16,29.70
2014,08,10,17,17,29.70
2014,08,10,17,18,29.60
2014,08,10,17,19,29.60